When you browse on this site, cookies collect data to enhance your experience and personalize the content and advertising you see.
Visit our Privacy Policy to learn more. By continuing to use the site, you agree to this use of cookies and data.

Hourly Weather Belopole

Today, 7 July, Tuesday

Time Temperature Precipitation Wind Pressure Humidity
00:00 +21°C° 0 mm 2 mps 742 mmHg 92%
01:00 +21°C° 0 mm 2 mps 742 mmHg 93%
02:00 +21°C° 0 mm 2 mps 742 mmHg 94%
03:00 +21°C° 0 mm 2 mps 741 mmHg 94%
04:00 +21°C° 0 mm 2 mps 741 mmHg 94%
05:00 +22°C° 0 mm 1 mps 741 mmHg 93%
06:00 +24°C° 0 mm 1 mps 741 mmHg 87%
07:00 +25°C° 0 mm 1 mps 741 mmHg 81%
08:00 +27°C° 0 mm 2 mps 741 mmHg 74%
09:00 +29°C° 0 mm 2 mps 740 mmHg 70%
10:00 +30°C° 0 mm 2 mps 740 mmHg 65%
11:00 +31°C° 0 mm 2 mps 740 mmHg 61%
12:00 +32°C° 0 mm 2 mps 740 mmHg 60%
13:00 +33°C° 0 mm 3 mps 739 mmHg 59%
14:00 +34°C° 0 mm 2 mps 739 mmHg 58%
15:00 +33°C° 0.7 mm 3 mps 739 mmHg 64%
16:00 +31°C° 0.7 mm 3 mps 738 mmHg 69%
17:00 +30°C° 0.7 mm 3 mps 738 mmHg 75%
18:00 +27°C° 1.1 mm 3 mps 738 mmHg 81%
19:00 +24°C° 1.1 mm 3 mps 739 mmHg 88%
20:00 +20°C° 1.1 mm 3 mps 739 mmHg 94%
21:00 +20°C° 0.2 mm 3 mps 739 mmHg 94%
22:00 +20°C° 0.2 mm 3 mps 739 mmHg 95%
23:00 +19°C° 0.2 mm 3 mps 739 mmHg 96%

Tomorrow, 8 July, Wednesday

Time Temperature Precipitation Wind Pressure Humidity
00:00 +19°C° 1.1 mm 4 mps 739 mmHg 96%
01:00 +19°C° 1.1 mm 4 mps 740 mmHg 96%
02:00 +17°C° 1.1 mm 5 mps 740 mmHg 96%
03:00 +16°C° 0.2 mm 5 mps 740 mmHg 95%
04:00 +16°C° 0.2 mm 5 mps 740 mmHg 95%
05:00 +15°C° 0.2 mm 6 mps 740 mmHg 94%
06:00 +15°C° 0 mm 6 mps 741 mmHg 93%
07:00 +15°C° 0 mm 6 mps 741 mmHg 92%
08:00 +15°C° 0 mm 6 mps 741 mmHg 92%
09:00 +14°C° 0.1 mm 6 mps 742 mmHg 90%
10:00 +14°C° 0.1 mm 7 mps 743 mmHg 88%
11:00 +14°C° 0.1 mm 7 mps 743 mmHg 87%
12:00 +14°C° 0 mm 7 mps 744 mmHg 85%
13:00 +15°C° 0 mm 7 mps 744 mmHg 83%
14:00 +16°C° 0 mm 7 mps 744 mmHg 82%
15:00 +16°C° 0 mm 7 mps 744 mmHg 80%
16:00 +16°C° 0 mm 6 mps 745 mmHg 78%
17:00 +17°C° 0 mm 6 mps 745 mmHg 76%
18:00 +16°C° 0 mm 5 mps 745 mmHg 81%
19:00 +15°C° 0 mm 4 mps 745 mmHg 85%
20:00 +14°C° 0 mm 3 mps 745 mmHg 89%
21:00 +14°C° 0 mm 3 mps 746 mmHg 90%
22:00 +14°C° 0 mm 3 mps 746 mmHg 91%
23:00 +13°C° 0 mm 4 mps 746 mmHg 91%

Day after tomorrow, 9 July, Thursday

Time Temperature Precipitation Wind Pressure Humidity
00:00 +13°C° 0 mm 4 mps 746 mmHg 91%
01:00 +12°C° 0 mm 4 mps 746 mmHg 91%
02:00 +12°C° 0 mm 3 mps 747 mmHg 90%
03:00 +12°C° 0 mm 3 mps 747 mmHg 90%
04:00 +12°C° 0 mm 3 mps 747 mmHg 90%
05:00 +12°C° 0 mm 3 mps 747 mmHg 89%
06:00 +13°C° 0 mm 3 mps 747 mmHg 85%
07:00 +15°C° 0 mm 4 mps 748 mmHg 80%
08:00 +18°C° 0 mm 4 mps 748 mmHg 76%
09:00 +19°C° 0 mm 4 mps 748 mmHg 72%
10:00 +20°C° 0 mm 4 mps 748 mmHg 69%
11:00 +21°C° 0 mm 4 mps 749 mmHg 66%
12:00 +21°C° 0.1 mm 5 mps 749 mmHg 68%
13:00 +20°C° 0.1 mm 5 mps 749 mmHg 71%
14:00 +20°C° 0.1 mm 6 mps 749 mmHg 73%
15:00 +20°C° 0 mm 5 mps 749 mmHg 74%
16:00 +19°C° 0 mm 5 mps 749 mmHg 75%
17:00 +18°C° 0 mm 4 mps 749 mmHg 77%
18:00 +17°C° 0 mm 4 mps 749 mmHg 82%
19:00 +16°C° 0 mm 3 mps 749 mmHg 87%
20:00 +15°C° 0 mm 2 mps 749 mmHg 93%
21:00 +14°C° 0 mm 2 mps 749 mmHg 93%
22:00 +14°C° 0 mm 2 mps 750 mmHg 94%
23:00 +13°C° 0 mm 2 mps 750 mmHg 95%

10 July, Friday

Time Temperature Precipitation Wind Pressure Humidity
00:00 +13°C° 0 mm 2 mps 750 mmHg 95%
01:00 +13°C° 0 mm 2 mps 750 mmHg 95%
02:00 +13°C° 0 mm 2 mps 750 mmHg 95%
03:00 +13°C° 0 mm 2 mps 751 mmHg 95%
04:00 +13°C° 0 mm 2 mps 751 mmHg 95%
05:00 +13°C° 0 mm 2 mps 751 mmHg 95%
06:00 +15°C° 0 mm 2 mps 751 mmHg 89%
07:00 +17°C° 0 mm 2 mps 751 mmHg 83%
08:00 +18°C° 0 mm 2 mps 752 mmHg 77%
09:00 +19°C° 0 mm 2 mps 752 mmHg 71%
10:00 +20°C° 0 mm 2 mps 752 mmHg 64%
11:00 +23°C° 0 mm 2 mps 752 mmHg 58%
12:00 +23°C° 0 mm 2 mps 752 mmHg 56%
13:00 +23°C° 0 mm 2 mps 752 mmHg 54%
14:00 +24°C° 0 mm 2 mps 752 mmHg 52%
15:00 +24°C° 0 mm 2 mps 752 mmHg 54%
16:00 +24°C° 0 mm 2 mps 752 mmHg 56%
17:00 +24°C° 0 mm 1 mps 752 mmHg 58%
18:00 +22°C° 0 mm 1 mps 752 mmHg 63%
19:00 +20°C° 0 mm 1 mps 752 mmHg 68%
20:00 +16°C° 0 mm 0 mps 752 mmHg 73%
21:00 +18°C° 0 mm 1 mps 753 mmHg 74%
22:00 +16°C° 0 mm 1 mps 753 mmHg 75%
23:00 +16°C° 0 mm 1 mps 753 mmHg 76%

11 July, Saturday

Time Temperature Precipitation Wind Pressure Humidity
00:00 +15°C° 0 mm 1 mps 753 mmHg 77%
01:00 +15°C° 0 mm 1 mps 753 mmHg 78%
02:00 +15°C° 0 mm 2 mps 753 mmHg 79%
03:00 +15°C° 0 mm 2 mps 753 mmHg 80%
04:00 +15°C° 0 mm 2 mps 753 mmHg 81%
05:00 +15°C° 0 mm 2 mps 753 mmHg 83%
06:00 +17°C° 0 mm 2 mps 753 mmHg 79%
07:00 +18°C° 0 mm 2 mps 754 mmHg 75%
08:00 +20°C° 0 mm 3 mps 754 mmHg 71%
09:00 +21°C° 0 mm 3 mps 754 mmHg 66%
10:00 +24°C° 0 mm 3 mps 754 mmHg 62%
11:00 +25°C° 0 mm 3 mps 754 mmHg 58%
12:00 +25°C° 0 mm 3 mps 753 mmHg 56%
13:00 +26°C° 0 mm 2 mps 753 mmHg 54%
14:00 +26°C° 0 mm 2 mps 753 mmHg 52%
15:00 +26°C° 0 mm 2 mps 753 mmHg 55%
16:00 +26°C° 0 mm 2 mps 752 mmHg 58%
17:00 +26°C° 0 mm 2 mps 752 mmHg 61%
18:00 +24°C° 0 mm 2 mps 752 mmHg 65%
19:00 +21°C° 0 mm 2 mps 752 mmHg 68%
20:00 +19°C° 0 mm 2 mps 752 mmHg 71%
21:00 +19°C° 0 mm 2 mps 752 mmHg 72%
22:00 +18°C° 0 mm 2 mps 752 mmHg 74%
23:00 +17°C° 0 mm 3 mps 752 mmHg 75%

12 July, Sunday

Time Temperature Precipitation Wind Pressure Humidity
00:00 +17°C° 0 mm 3 mps 752 mmHg 76%
01:00 +16°C° 0 mm 3 mps 751 mmHg 76%
02:00 +16°C° 0 mm 3 mps 751 mmHg 76%
03:00 +16°C° 0 mm 3 mps 751 mmHg 78%
04:00 +16°C° 0 mm 3 mps 751 mmHg 80%
05:00 +16°C° 0 mm 2 mps 751 mmHg 82%
06:00 +17°C° 0 mm 3 mps 751 mmHg 78%
07:00 +19°C° 0 mm 3 mps 751 mmHg 75%
08:00 +21°C° 0 mm 3 mps 751 mmHg 72%
09:00 +22°C° 0 mm 3 mps 751 mmHg 67%
10:00 +25°C° 0 mm 3 mps 751 mmHg 62%
11:00 +26°C° 0 mm 3 mps 750 mmHg 57%
12:00 +26°C° 0 mm 3 mps 750 mmHg 55%
13:00 +27°C° 0 mm 3 mps 750 mmHg 54%
14:00 +27°C° 0 mm 3 mps 749 mmHg 52%
15:00 +27°C° 0 mm 2 mps 749 mmHg 55%
16:00 +27°C° 0 mm 2 mps 749 mmHg 58%
17:00 +27°C° 0 mm 2 mps 748 mmHg 61%
18:00 +25°C° 0 mm 2 mps 748 mmHg 64%
19:00 +23°C° 0 mm 2 mps 748 mmHg 66%
20:00 +20°C° 0 mm 2 mps 748 mmHg 69%
21:00 +19°C° 0 mm 2 mps 748 mmHg 71%
22:00 +18°C° 0 mm 2 mps 747 mmHg 73%
23:00 +18°C° 0 mm 2 mps 747 mmHg 74%
Show more